Regional Weather Roundup
Issued by NWS

Home | Current Version | Previous Version | Graphics & Text | Print | Product List | Glossary Off
Versions: 1 2 3 4 5 6 7 8 9 10 11 12 13 14 15 16 17 18 19 20 21 22 23 24 25 26 27 28 29 30 31 32 33 34 35 36 37 38 39 40 41 42 43 44 45 46 47 48 49 50

000
ASUS43 KMPX 180310
RWRMN
WEATHER ROUNDUP FOR MINNESOTA
NATIONAL WEATHER SERVICE TWIN CITIES/CHANHASSEN MN
1000 PM CDT WED SEP 17 2014


NOTE: "FAIR" INDICATES FEW OR NO CLOUDS BELOW 12,000 FEET WITH NO
SIGNIFICANT WEATHER AND/OR OBSTRUCTIONS TO VISIBILITY. N/A MEANS
CURRENT SKY AND/OR WEATHER CONDITIONS ARE NOT AVAILABLE.

MNZ060>063-068>070-180400-
   Twin Cities Metro

CITY           SKY/WX    TMP DP  RH WIND       PRES   REMARKS
TWIN CITIES    CLEAR     63  52  67 CALM      30.00R
ST PAUL        CLEAR     58  54  86 CALM      30.00R
CRYSTAL        CLEAR     57  53  86 CALM      29.99R
BLAINE         CLEAR     57  55  94 CALM      30.00S
LAKEVILLE      CLEAR     54  52  94 CALM      30.00S
EDEN PRAIRIE     N/A    N/A N/A N/A MISG      29.99R
SOUTH ST PAUL  CLEAR     60  55  86 CALM      30.00R
LAKE ELMO      FAIR      52  52 100 CALM      30.02R
$$
MNZ001>005-007-008-013>017-022>024-027-028-180400-
   Northwest Minnesota

CITY           SKY/WX    TMP DP  RH WIND       PRES   REMARKS
BEMIDJI        CLEAR     48  43  83 E8        30.06R
HALLOCK        CLEAR     45  39  81 E8        30.07S
ROSEAU         CLEAR     39  34  81 E5        30.10S
WARROAD        PTCLDY    46  41  81 E10       30.10S
THIEF RVR FALL CLEAR     46  41  81 NE10      30.06S
CROOKSTON      CLEAR     50  45  81 E8        30.06R
FOSSTON        CLEAR     48  43  81 CALM      30.05S
DETROIT LAKES  CLEAR     57  52  82 E5        30.04R
MOORHEAD       CLEAR     54  54 100 NE5       30.02S
PARK RAPIDS    CLEAR     55  49  80 NE6       30.03R
MAHNOMEN       FAIR      49  46  90 E7        30.03S
$$
MNZ006-009>011-018-025>026-180400-
   North Central Minnesota

CITY           SKY/WX    TMP DP  RH WIND       PRES   REMARKS
BAUDETTE       CLEAR     40  37  89 NE8       30.10F
FLAG ISLAND    PTCLDY    45  36  70 E5        30.11S
INTL FALLS     CLEAR     33  31  92 CALM      30.11R
WASKISH        CLEAR     43  39  87 CALM      30.09S
BIG FORK       CLEAR     45  39  81 NE3       30.09S
LONGVILLE      CLEAR     52  48  87 E5        30.05R
GRAND RAPIDS   CLOUDY    46  41  81 E5        30.09R
CRANE LAKE     CLEAR     37  37 100 CALM      30.13S
ORR            CLEAR     41  37  87 CALM      30.09R
COOK           CLEAR     43  41  93 CALM      30.11R
WALKER         FAIR      52  46  81 NE6       30.05R
$$
MNZ012-019>021-037-180400-
   Northeast Minnesota

CITY           SKY/WX    TMP DP  RH WIND       PRES   REMARKS
DULUTH         CLOUDY    45  39  79 E12       30.11S
ELY            MOCLDY    43  39  87 SE5       30.12R
HIBBING        CLOUDY    46  41  82 SE12      30.11R
EVELETH        CLOUDY    43  39  87 E7        30.12S
DULUTH HARBOR  CLOUDY    50  45  81 E20       30.13R
TWO HARBORS    CLOUDY    43  37  81 E10       30.12R
SILVER BAY     PTCLDY    43  43 100 CALM      30.13R
GRAND MARAIS     N/A     44  38  79 VRB5      30.16R
G MARAIS ARPRT CLOUDY    37  34  87 NE3       30.14R
$$
MNZ029>031-032-039>041-046>048-054>057-064-180400-
   West Central Minnesota

CITY           SKY/WX    TMP DP  RH WIND       PRES   REMARKS
FERGUS FALLS   CLEAR     57  46  67 NE3       30.00S
WHEATON        CLEAR     57  46  67 CALM      30.01S
MORRIS         CLEAR     55  52  88 E6        29.99R
ALEXANDRIA     CLEAR     57  52  83 SE3       30.02R
ELBOW LAKE     FAIR      60  52  75 CALM      30.00R
WADENA         CLEAR     55  50  82 NE5       30.02S
GLENWOOD       CLEAR     57  54  88 E3        30.01S
APPLETON       PTCLDY    59  54  82 CALM      29.98S
BENSON         CLEAR     61  55  82 E3        29.99S
ORTONVILLE     CLEAR     59  52  77 NE3       29.99R
MADISON        CLEAR     59  55  88 CALM      29.99R
WILLMAR        FAIR      59  54  82 E3        30.01S
$$
MNZ033>034-036-042>043-049>051-058-059-180400-
   Central Minnesota

CITY           SKY/WX    TMP DP  RH WIND       PRES   REMARKS
ST CLOUD       CLEAR     57  53  86 E9        30.01R
SAUK CENTRE    FAIR      53  52  94 CALM      30.01R
PAYNESVILLE    CLEAR     52  51  98 CALM      30.01R
AITKIN         CLOUDY    48  43  81 E9        30.07R
PINE RIVER     CLEAR     52  48  87 SE7       30.08R
BRAINERD       CLEAR     50  47  89 E7        30.05R
STAPLES        CLEAR     55  50  82 N3        30.02S
LONG PRAIRIE   FAIR      52  50  93 CALM      30.02R
LITTLE FALLS   CLEAR     54  52  94 NE3       30.02R
LITCHFIELD     CLEAR     61  57  88 CALM      30.01S
BUFFALO        CLEAR     56  53  88 CALM      30.01R
MAPLE LAKE     CLEAR     55  55  97 CALM      30.01S FOG
$$
MNZ037-044-045-052-053-180400-
   East Central Minnesota

CITY           SKY/WX    TMP DP  RH WIND       PRES   REMARKS
PRINCETON      CLEAR     55  52  88 NE6       30.03R
MORA           CLOUDY    46  43  87 E6        30.08R
CAMBRIDGE      FAIR      54  45  71 NE7       30.03R
RUSH CITY      MOCLDY    50  47  90 NE8G16    30.05R
MOOSE LAKE     CLOUDY    46  41  81 NE7       30.08R
HINCKLEY       CLOUDY    48  46  93 NE8       30.08R
CLOQUET        CLOUDY    45  39  81 E12G20    30.10R
MCGREGOR       CLOUDY    45  43  93 E9        30.09R
$$
MNZ071>073-080-081-089-090-097-098-180400-
   Southwest Minnesota

CITY           SKY/WX    TMP DP  RH WIND       PRES   REMARKS
MONTEVIDEO     CLEAR     61  54  77 SE5       29.99S
GRANITE FALLS  PTCLDY    57  52  84 N3        30.00S
CANBY          PTCLDY    57  55  93 W5        30.00R
MARSHALL       PTCLDY    59  52  77 CALM      29.98R
REDWOOD FALLS  PTCLDY    63  54  72 E3        29.98R
OLIVIA         CLEAR     59  52  77 CALM      29.99S
PIPESTONE      PTCLDY    61  54  77 CALM      30.00S
WINDOM         MOCLDY    61  54  77 NE3       30.00R
WORTHINGTON    CLEAR     59  55  88 CALM      30.00S
JACKSON        PTCLDY    55  52  88 CALM      30.00R
TRACY          MOCLDY    61  54  78 CALM      29.99S
SLAYTON        PTCLDY    59  53  80 CALM      30.01R
$$
MNZ065>067-074>077-082>085-091>093-180400-
   South Central Minnesota

CITY           SKY/WX    TMP DP  RH WIND       PRES   REMARKS
MANKATO        CLEAR     63  50  63 E5        29.99S
NEW ULM        PTCLDY    64  54  68 E5        29.99R
ST JAMES       PTCLDY    61  54  77 E3        30.00R
FAIRMONT       PTCLDY    61  48  63 CALM      29.99S
GLENCOE        CLEAR     58  53  83 CALM      30.00R
FARIBAULT      CLEAR     55  50  82 CALM      30.01R
OWATONNA       CLEAR     55  52  88 CALM      30.01R
WASECA         CLEAR     52  46  82 CALM      30.01S
ALBERT LEA     CLEAR     57  55  94 CALM      30.01R
$$
MNZ078>079-086>088-094>096-180400-
   Southeast Minnesota

CITY           SKY/WX    TMP DP  RH WIND       PRES   REMARKS
ROCHESTER      CLEAR     56  51  84 S6        30.02R
RED WING       CLEAR     55  52  88 CALM      29.99R
STANTON        CLEAR     55  52  90 CALM      29.99R
DODGE CENTER   CLEAR     57  54  88 CALM      30.01R
WINONA         CLEAR     57  55  94 CALM      30.01S
AUSTIN         CLEAR     55  52  88 CALM      30.01R
PRESTON        CLEAR     58  55  89 S3        30.02R
$$
ABBREVIATIONS USED IN REMARKS
   TC - TEMPERATURES IN CELSIUS
  WCI - WIND CHILL INDEX
   HX - HEAT INDEX
  VSB - VISIBILITY
$$



USA.gov is the U.S. government's official web portal to all federal, state and local government web resources and services.